COSMOS 2251 DEB, 33837

Orbit data source: Space-Track

COSMOS 2251 DEB, 33837 is space debris in LEO originally from a launch on Wed, 16 Jun 1993 UTC launched from the Plesetsk Missile And Space Complex (PKMTR). The debris from Iridium 33, an American commercial communications satellite, has been tracked extensively since its accidental collision with the defunct Russian satellite Cosmos 2251 in 2009. This event, occurring at high speed in low Earth orbit (LEO), generated thousands of pieces of space debris, significantly increasing the risk of further collisions. The Iridium 33 debris cloud has impacted space traffic management and orbital debris mitigation strategies, making it a subject of ongoing study in space situational awareness.

Loading next visibility...
Identifier
33837, 1993-036CE
Orbit
LEO
Country
Flag of CISCIS
Related business
Manufacturer
Unknown
Mission
Spacecraft
Bus & Motor
Unknown
Mass
Unknown
Launch date (UTC)
1993-06-16 (33 years ago)
Launch vehicle
Unknown
Launch site
Plesetsk Missile And Space Complex (PKMTR)
Object type
Payload
Rocket body
Debris
Shape & HBR
Unknown shape, 0.1 m
Radar Cross Section
Small (<0.1 m²)

Expand to show TLE details & history
Last TLE update: 1 day ago

TLE from 1 day ago
0 COSMOS 2251 DEB
1 33837U 93036CE  26034.18329531  .00000964  00000-0  24996-3 0  9994
2 33837  74.0138 316.8515 0034289 167.9533 192.2457 14.50841279895562
Epoch: 2026-02-03T04:23Z
TLE epoch observation values (Epoch: 2026-02-03T04:23:56.714Z)
Latitude
0.00005°
Longitude
117.49732°
Altitude
749.333 km
Speed
7.468 km/s
True Right ascension
21h 07m 24s
True Declination
0° 00' 00"
Sunlit
Object was in daylight at epoch
Visualization orbit readout
Latitude
Unknown
Longitude
Unknown
Altitude
Unknown
Speed
Unknown
Apparent Right ascension
Unknown
Apparent Declination
Unknown
Sunlit
N/A
Visualization observer readout
Local Sidereal Time
07:46:09
Azimuth
Unknown
Elevation
Unknown
Doppler factor
Unknown
Orbital elements
Apogee altitude
744.852 km
Perigee altitude
696.171 km
Semi-major axis
7,098.649 km
Eccentricity
0.00343
Inclination
74.0138°
RAAN
316.8515°
Arg. of periapsis
167.9533°
True anomaly
192.16271°
Mean anomaly
192.2457°
Eccentric anomaly
192.20417°
Mean motion
3.62894 °/min
Orbital period
99.2 mins
BSTAR
0.00024996
Loading maneuver chart data...
Computing Atmospheric mass density...

Documentation

Showing up to 5 results
|